Lake Tahoe Weather Center

Moon Phase Calendar



Lake Tahoe Water Level
Online Cameras

 


      

Current Conditions in Tahoma
2/3/2023 11:12:05 AM

39°F
Feels Like 37
Clouds
Humidity
56%
Pressure
30.24"
Wind
3 mph (NW)
Dew Point
25°F
UV Index
2/10 (Low)
Visibility
6 mi

Hourly Forecast

Date & Time Fri, Feb 3
11:00 AM
Fri, Feb 3
12:00 PM
Fri, Feb 3
1:00 PM
Fri, Feb 3
2:00 PM
Fri, Feb 3
3:00 PM
Fri, Feb 3
4:00 PM
Fri, Feb 3
5:00 PM
Fri, Feb 3
6:00 PM
Fri, Feb 3
7:00 PM
Fri, Feb 3
8:00 PM
Fri, Feb 3
9:00 PM
Fri, Feb 3
10:00 PM
Fri, Feb 3
11:00 PM
Sat, Feb 4
12:00 AM
Sat, Feb 4
1:00 AM
Sat, Feb 4
2:00 AM
Sat, Feb 4
3:00 AM
Sat, Feb 4
4:00 AM
Sat, Feb 4
5:00 AM
Sat, Feb 4
6:00 AM
Sat, Feb 4
7:00 AM
Sat, Feb 4
8:00 AM
Sat, Feb 4
9:00 AM
Sat, Feb 4
10:00 AM
Sat, Feb 4
11:00 AM
Sat, Feb 4
12:00 PM
Sat, Feb 4
1:00 PM
Sat, Feb 4
2:00 PM
Sat, Feb 4
3:00 PM
Sat, Feb 4
4:00 PM
Sat, Feb 4
5:00 PM
Sat, Feb 4
6:00 PM
Sat, Feb 4
7:00 PM
Sat, Feb 4
8:00 PM
Sat, Feb 4
9:00 PM
Sat, Feb 4
10:00 PM
Sat, Feb 4
11:00 PM
Sun, Feb 5
12:00 AM
Sun, Feb 5
1:00 AM
Sun, Feb 5
2:00 AM
Sun, Feb 5
3:00 AM
Sun, Feb 5
4:00 AM
Sun, Feb 5
5:00 AM
Sun, Feb 5
6:00 AM
Sun, Feb 5
7:00 AM
Sun, Feb 5
8:00 AM
Sun, Feb 5
9:00 AM
Sun, Feb 5
10:00 AM
Condition
Clouds

Snow

Clouds

Clouds

Clouds

Clouds

Clouds

Clouds

Clouds

Clouds

Clouds

Clouds

Clouds

Clouds

Clouds

Clouds

Clouds

Clouds

Clouds

Clouds

Clouds

Clouds

Clouds

Clouds

Clouds

Clouds

Clouds

Clouds

Clouds

Clouds

Clouds

Clouds

Clouds

Clouds

Snow

Snow

Snow

Snow

Snow

Snow

Snow

Snow

Snow

Snow

Snow

Snow

Snow

Snow
Temperature 39°F38°F38°F38°F38°F36°F35°F34°F34°F32°F32°F32°F32°F32°F33°F32°F33°F33°F33°F33°F33°F34°F37°F39°F41°F42°F43°F42°F41°F40°F38°F37°F36°F36°F35°F32°F32°F34°F34°F30°F28°F27°F27°F28°F27°F28°F28°F29°F
Feels Like 30°F30°F30°F31°F29°F29°F28°F27°F27°F27°F27°F27°F28°F28°F28°F28°F28°F29°F29°F29°F29°F30°F34°F36°F38°F38°F38°F37°F35°F33°F31°F29°F28°F28°F26°F24°F26°F25°F21°F17°F15°F15°F15°F15°F15°F15°F15°F16°F
Cloudiness 66%67%65%70%76%77%40%56%68%56%50%53%79%77%85%89%91%92%100%100%100%100%100%100%100%100%100%100%100%100%100%100%93%93%93%92%99%100%100%100%100%100%100%100%100%100%99%98%
Visibility 6 mi6 mi6 mi6 mi6 mi6 mi6 mi6 mi6 mi6 mi6 mi6 mi6 mi6 mi6 mi6 mi6 mi6 mi6 mi6 mi6 mi6 mi6 mi6 mi6 mi6 mi6 mi6 mi6 mi6 mi6 mi6 mi6 mi6 mi4 mi0 mi0 mi0 mi0 mi0 mi0 mi0 mi0 mi0 mi0 mi0 mi0 mi0 mi
Precipitation 51%47%47%39%39%41%12%5%4%0%0%0%0%0%0%0%0%0%0%0%0%0%0%0%0%0%0%0%0%0%0%0%0%0%44%64%89%97%100%100%100%100%83%83%79%83%83%83%
Humidity 56%59%63%67%69%73%77%78%78%81%79%77%78%80%80%80%79%77%77%76%76%73%67%62%60%58%58%59%64%68%69%68%67%65%68%93%96%97%97%96%97%92%92%92%95%95%92%92%
Dew Point 25°F26°F27°F28°F29°F27°F27°F26°F26°F26°F24°F24°F24°F25°F25°F25°F25°F25°F25°F25°F24°F25°F25°F26°F27°F27°F27°F28°F29°F28°F27°F25°F24°F24°F24°F28°F29°F31°F31°F27°F25°F23°F23°F24°F24°F24°F24°F25°F
Pressure 30.24"30.24"30.21"30.18"30.18"30.18"30.21"30.24"30.24"30.27"30.27"30.27"30.27"30.27"30.24"30.24"30.21"30.21"30.21"30.21"30.21"30.18"30.15"30.12"30.09"30.06"30"30"29.97"30"30"30"30"29.97"29.97"30"29.91"29.85"29.88"30"30.03"30.03"30.03"30.03"30.06"30.06"30.06"30.06"
Wind Speed 14.8 mph13 mph11.2 mph10 mph13.6 mph9.5 mph7.8 mph7.2 mph7.1 mph6.1 mph5.2 mph5.2 mph4.5 mph4.1 mph4.7 mph4.5 mph5 mph4.1 mph4.2 mph4.1 mph4.2 mph4.1 mph3.7 mph3.9 mph4.4 mph6.1 mph8.6 mph9.6 mph10 mph10.7 mph10.3 mph10.4 mph10.4 mph10.8 mph12.8 mph8.6 mph7.1 mph12.5 mph30.2 mph28.5 mph23.9 mph24 mph20.3 mph19 mph16.9 mph20.4 mph20 mph20.4 mph
Wind
Direction
224°
SW
211°
SSW
222°
SW
221°
SW
233°
SW
235°
SW
228°
SW
228°
SW
222°
SW
223°
SW
226°
SW
220°
SW
236°
SW
225°
SW
219°
SW
236°
SW
227°
SW
222°
SW
224°
SW
219°
SW
221°
SW
229°
SW
221°
SW
218°
SW
217°
SW
225°
SW
229°
SW
229°
SW
228°
SW
222°
SW
210°
SSW
211°
SSW
213°
SSW
210°
SSW
204°
SSW
174°
S
159°
SSE
170°
S
240°
WSW
230°
SW
248°
WSW
239°
WSW
233°
SW
234°
SW
235°
SW
239°
WSW
239°
WSW
235°
SW

Daily Forecast

Date High Low Precip. Humidity
Today
Feb 3

Snow
39 °F
32 °F
51%
59%
Saturday
Feb 4

Snow
43 °F
32 °F
89%
58%
Sunday
Feb 5

Snow
34 °F
21 °F
100%
92%
Monday
Feb 6

Clear
31 °F
19 °F
0%
67%
Tuesday
Feb 7

Clear
40 °F
25 °F
0%
67%
Wednesday
Feb 8

Clouds
43 °F
32 °F
0%
74%
Thursday
Feb 9

Clear
42 °F
32 °F
0%
55%
Friday
Feb 10

Clear
44 °F
32 °F
0%
56%
Saturday
Feb 11

Clouds
45 °F
35 °F
0%
51%
Sunday
Feb 12

Snow
34 °F
26 °F
71%
82%
Monday
Feb 13

Clear
37 °F
23 °F
14%
61%
Tuesday
Feb 14

Snow
32 °F
25 °F
78%
84%
Wednesday
Feb 15

Clear
33 °F
21 °F
22%
56%
Thursday
Feb 16

Clouds
41 °F
28 °F
0%
51%
Friday
Feb 17

Snow
31 °F
25 °F
98%
89%
Saturday
Feb 18

Snow
33 °F
25 °F
49%
71%

Temperature 8-14 Day Outlook



Precipitation 8-14 Day Outlook






About Us
Contact Us
Site Map
Search Site
Advertise With Us
   
Tahoe.USLakes.info
THE LAKE TAHOE WEBSITE

Copyright 2023, Lakes Online
Privacy    |    Legal